AZU1383 SBBR-SBSV

Flight info

Callsign AZU1383
Flight time 1h 33m
Altitude 39000
Route UGTAK UZ19 DOTBI
Aircraft A20N/M-SDE2E3FGHIRWXY/LB1

Departure

Time 2026-05-05 00:10
Airport Presidente Juscelino Kubitschek International Airport (SBBR)

Arrival

Time 2026-05-05 01:43
Airport Deputado Luiz Eduardo Magalhães International Airport (SBSV)
Time Latitude Longitude Altitude Speed Heading
2026-05-04 23:45 -15.86925 -47.91540 3461 ft 0 kts 83°
2026-05-04 23:51 -15.86928 -47.91565 3461 ft 6 kts 94°
2026-05-04 23:51 -15.86907 -47.91600 3461 ft 4 kts 167°
2026-05-04 23:52 -15.86903 -47.91601 3461 ft 0 kts 167°
2026-05-04 23:54 -15.86908 -47.91600 3461 ft 4 kts 168°
2026-05-04 23:54 -15.86965 -47.91597 3460 ft 14 kts 178°
2026-05-04 23:54 -15.87096 -47.91592 3456 ft 23 kts 176°
2026-05-04 23:55 -15.87283 -47.91581 3452 ft 30 kts 176°
2026-05-04 23:55 -15.87506 -47.91565 3445 ft 33 kts 176°
2026-05-04 23:55 -15.87587 -47.91561 3443 ft 0 kts 178°
2026-05-04 23:56 -15.87595 -47.91560 3444 ft 3 kts 171°
2026-05-04 23:56 -15.87635 -47.91553 3442 ft 8 kts 171°
2026-05-04 23:56 -15.87700 -47.91559 3444 ft 10 kts 206°
2026-05-04 23:56 -15.87731 -47.91617 3441 ft 9 kts 266°
2026-05-04 23:57 -15.87738 -47.91684 3446 ft 10 kts 264°
2026-05-04 23:57 -15.87746 -47.91762 3445 ft 11 kts 264°
2026-05-04 23:57 -15.87754 -47.91847 3447 ft 12 kts 265°
2026-05-04 23:57 -15.87759 -47.91937 3450 ft 13 kts 266°
2026-05-04 23:58 -15.87764 -47.92033 3452 ft 14 kts 266°
2026-05-04 23:58 -15.87770 -47.92134 3455 ft 15 kts 266°
2026-05-04 23:58 -15.87777 -47.92243 3460 ft 15 kts 266°
2026-05-04 23:58 -15.87785 -47.92355 3461 ft 16 kts 266°
2026-05-04 23:59 -15.87793 -47.92473 3464 ft 17 kts 265°
2026-05-04 23:59 -15.87803 -47.92596 3467 ft 17 kts 265°
2026-05-04 23:59 -15.87809 -47.92722 3470 ft 17 kts 268°
2026-05-04 23:59 -15.87813 -47.92846 3473 ft 17 kts 267°
2026-05-05 00:00 -15.87820 -47.92974 3475 ft 18 kts 266°
2026-05-05 00:00 -15.87825 -47.93060 3479 ft 18 kts 267°
2026-05-05 00:00 -15.87834 -47.93231 3479 ft 18 kts 266°
2026-05-05 00:00 -15.87843 -47.93359 3487 ft 18 kts 266°
2026-05-05 00:01 -15.87852 -47.93494 3487 ft 18 kts 265°
2026-05-05 00:01 -15.87863 -47.93630 3503 ft 19 kts 265°
2026-05-05 00:01 -15.87874 -47.93764 3505 ft 19 kts 265°
2026-05-05 00:01 -15.87887 -47.93898 3505 ft 19 kts 263°
2026-05-05 00:02 -15.87924 -47.93990 3509 ft 3 kts 213°
2026-05-05 00:02 -15.87931 -47.93993 3506 ft 1 kts 198°
2026-05-05 00:02 -15.87941 -47.93993 3509 ft 2 kts 186°
2026-05-05 00:02 -15.87952 -47.93994 3508 ft 0 kts 184°
2026-05-05 00:08 -15.87959 -47.93994 3509 ft 2 kts 182°
2026-05-05 00:08 -15.87981 -47.93995 3511 ft 4 kts 182°
2026-05-05 00:08 -15.88011 -47.93994 3511 ft 5 kts 174°
2026-05-05 00:08 -15.88044 -47.93979 3510 ft 6 kts 133°
2026-05-05 00:09 -15.88055 -47.93926 3506 ft 10 kts 86°
2026-05-05 00:09 -15.88055 -47.93919 3506 ft 0 kts 86°
2026-05-05 00:09 -15.88046 -47.93768 3501 ft 56 kts 87°
2026-05-05 00:10 -15.88004 -47.93129 3476 ft 120 kts 86°
2026-05-05 00:10 -15.87938 -47.92076 3657 ft 146 kts 86°
2026-05-05 00:10 -15.87883 -47.91278 4356 ft 126 kts 85°
2026-05-05 00:10 -15.87810 -47.90305 4876 ft 144 kts 85°
2026-05-05 00:11 -15.87729 -47.89313 5550 ft 140 kts 85°
2026-05-05 00:11 -15.87643 -47.88331 6266 ft 139 kts 84°
2026-05-05 00:11 -15.87538 -47.87232 6595 ft 173 kts 84°
2026-05-05 00:11 -15.87421 -47.85851 6886 ft 204 kts 86°
2026-05-05 00:12 -15.87361 -47.84311 7358 ft 228 kts 88°
2026-05-05 00:12 -15.87319 -47.83145 7784 ft 243 kts 88°
2026-05-05 00:12 -15.87237 -47.81347 8453 ft 262 kts 87°
2026-05-05 00:12 -15.87128 -47.79445 9400 ft 269 kts 86°
2026-05-05 00:13 -15.86997 -47.77366 9613 ft 305 kts 86°
2026-05-05 00:13 -15.86839 -47.74981 9243 ft 353 kts 86°
2026-05-05 00:13 -15.86664 -47.72303 8958 ft 387 kts 82°
2026-05-05 00:13 -15.86454 -47.69696 8997 ft 400 kts 80°
2026-05-05 00:14 -15.86185 -47.66801 9038 ft 414 kts 84°
2026-05-05 00:14 -15.85969 -47.64232 9757 ft 402 kts 88°
2026-05-05 00:14 -15.85698 -47.61382 11082 ft 388 kts 83°
2026-05-05 00:14 -15.85443 -47.58609 12650 ft 373 kts 81°
2026-05-05 00:15 -15.84740 -47.56037 14231 ft 360 kts 64°
2026-05-05 00:15 -15.83329 -47.53945 15261 ft 364 kts 44°
2026-05-05 00:15 -15.81311 -47.52348 16120 ft 369 kts 32°
2026-05-05 00:15 -15.79126 -47.50945 16997 ft 375 kts 31°
2026-05-05 00:16 -15.76993 -47.49576 17864 ft 379 kts 32°
2026-05-05 00:16 -15.74708 -47.48047 18729 ft 384 kts 33°
2026-05-05 00:16 -15.72562 -47.46566 19535 ft 389 kts 33°
2026-05-05 00:16 -15.70351 -47.45014 20307 ft 394 kts 34°
2026-05-05 00:17 -15.68068 -47.43400 21086 ft 399 kts 34°
2026-05-05 00:17 -15.65840 -47.41825 21802 ft 403 kts 34°
2026-05-05 00:17 -15.63570 -47.40221 22474 ft 407 kts 37°
2026-05-05 00:17 -15.61223 -47.38566 22975 ft 412 kts 34°
2026-05-05 00:18 -15.58848 -47.36878 23616 ft 415 kts 35°
2026-05-05 00:18 -15.56603 -47.34973 24258 ft 419 kts 44°
2026-05-05 00:18 -15.54693 -47.32723 24621 ft 422 kts 55°
2026-05-05 00:18 -15.53139 -47.30179 24955 ft 426 kts 65°
2026-05-05 00:19 -15.51665 -47.27514 25404 ft 427 kts 56°
2026-05-05 00:19 -15.50461 -47.25422 25674 ft 427 kts 63°
2026-05-05 00:19 -15.48893 -47.22737 25932 ft 431 kts 58°
2026-05-05 00:19 -15.47466 -47.20244 26237 ft 432 kts 55°
2026-05-05 00:20 -15.46437 -47.18481 26370 ft 433 kts 55°
2026-05-05 00:20 -15.44573 -47.15268 26568 ft 435 kts 61°
2026-05-05 00:20 -15.43017 -47.12603 26884 ft 436 kts 62°
2026-05-05 00:20 -15.41461 -47.09889 27164 ft 440 kts 59°
2026-05-05 00:21 -15.40394 -47.08039 27479 ft 441 kts 59°
2026-05-05 00:21 -15.38956 -47.05559 27828 ft 442 kts 63°
2026-05-05 00:21 -15.37335 -47.02732 27974 ft 443 kts 63°
2026-05-05 00:21 -15.35819 -47.00070 28125 ft 444 kts 60°
2026-05-05 00:22 -15.34252 -46.97369 28307 ft 447 kts 60°
2026-05-05 00:22 -15.32606 -46.94543 28554 ft 449 kts 58°
2026-05-05 00:22 -15.31083 -46.91910 28775 ft 450 kts 53°
2026-05-05 00:22 -15.29491 -46.89173 28985 ft 453 kts 58°
2026-05-05 00:23 -15.27965 -46.86522 29315 ft 455 kts 59°
2026-05-05 00:23 -15.26330 -46.83736 29652 ft 458 kts 59°
2026-05-05 00:23 -15.24683 -46.80878 30023 ft 460 kts 59°
2026-05-05 00:23 -15.23290 -46.78443 30300 ft 462 kts 59°
2026-05-05 00:24 -15.21921 -46.76057 30592 ft 464 kts 59°
2026-05-05 00:24 -15.20285 -46.73216 30923 ft 466 kts 59°
2026-05-05 00:24 -15.18582 -46.70271 31296 ft 468 kts 59°
2026-05-05 00:24 -15.16916 -46.67397 31743 ft 467 kts 59°
2026-05-05 00:25 -15.15246 -46.64518 32155 ft 466 kts 59°
2026-05-05 00:25 -15.13595 -46.61671 32565 ft 466 kts 59°
2026-05-05 00:25 -15.11935 -46.58810 33012 ft 463 kts 59°
2026-05-05 00:25 -15.10264 -46.55929 33441 ft 462 kts 59°
2026-05-05 00:26 -15.08647 -46.53143 33813 ft 461 kts 59°
2026-05-05 00:26 -15.06968 -46.50250 34160 ft 461 kts 59°
2026-05-05 00:26 -15.05316 -46.47405 34500 ft 461 kts 59°
2026-05-05 00:26 -15.03663 -46.44560 34846 ft 460 kts 59°
2026-05-05 00:27 -15.02027 -46.41746 35166 ft 460 kts 59°
2026-05-05 00:27 -15.00466 -46.39061 35448 ft 459 kts 59°
2026-05-05 00:27 -14.98801 -46.36199 35756 ft 459 kts 59°
2026-05-05 00:27 -14.97167 -46.33391 36086 ft 457 kts 59°
2026-05-05 00:28 -14.95498 -46.30523 36380 ft 456 kts 59°
2026-05-05 00:28 -14.93867 -46.27723 36621 ft 457 kts 59°
2026-05-05 00:28 -14.92210 -46.24876 36849 ft 457 kts 59°
2026-05-05 00:28 -14.90745 -46.21979 37099 ft 457 kts 66°
2026-05-05 00:29 -14.89629 -46.18999 37311 ft 457 kts 72°
2026-05-05 00:29 -14.88691 -46.15856 37520 ft 457 kts 72°
2026-05-05 00:29 -14.87746 -46.12729 37747 ft 457 kts 72°
2026-05-05 00:29 -14.86843 -46.09775 37930 ft 456 kts 72°
2026-05-05 00:30 -14.85931 -46.06798 38115 ft 457 kts 72°
2026-05-05 00:30 -14.84983 -46.03704 38283 ft 457 kts 72°
2026-05-05 00:30 -14.84053 -46.00670 38459 ft 457 kts 72°
2026-05-05 00:30 -14.83053 -45.97408 38641 ft 457 kts 72°
2026-05-05 00:31 -14.82108 -45.94322 38819 ft 457 kts 72°
2026-05-05 00:31 -14.81150 -45.91201 38976 ft 458 kts 72°
2026-05-05 00:31 -14.80178 -45.88031 39006 ft 461 kts 72°
2026-05-05 00:32 -14.78227 -45.81676 39010 ft 469 kts 72°
2026-05-05 00:32 -14.76243 -45.75226 38999 ft 475 kts 72°
2026-05-05 00:33 -14.74261 -45.68786 38997 ft 478 kts 72°
2026-05-05 00:33 -14.72224 -45.62171 38998 ft 481 kts 72°
2026-05-05 00:34 -14.70192 -45.55582 39002 ft 482 kts 72°
2026-05-05 00:34 -14.68160 -45.48999 39001 ft 484 kts 72°
2026-05-05 00:35 -14.66121 -45.42398 38998 ft 484 kts 72°
2026-05-05 00:35 -14.64414 -45.36880 39004 ft 485 kts 72°
2026-05-05 00:36 -14.62356 -45.30233 39002 ft 485 kts 72°
2026-05-05 00:36 -14.60641 -45.24700 39000 ft 486 kts 72°
2026-05-05 00:37 -14.58298 -45.17152 38995 ft 486 kts 72°
2026-05-05 00:37 -14.56235 -45.10515 39004 ft 486 kts 72°
2026-05-05 00:38 -14.54305 -45.04308 39006 ft 486 kts 72°
2026-05-05 00:38 -14.52227 -44.97636 38998 ft 486 kts 72°
2026-05-05 00:39 -14.50483 -44.92039 38998 ft 486 kts 72°
2026-05-05 00:39 -14.48451 -44.85528 39002 ft 486 kts 72°
2026-05-05 00:40 -14.46377 -44.78886 39003 ft 485 kts 72°
2026-05-05 00:40 -14.44303 -44.72262 39003 ft 485 kts 72°
2026-05-05 00:41 -14.42406 -44.66211 39005 ft 485 kts 72°
2026-05-05 00:41 -14.40305 -44.59514 38996 ft 485 kts 72°
2026-05-05 00:42 -14.38218 -44.52869 39000 ft 485 kts 72°
2026-05-05 00:42 -14.36156 -44.46310 39007 ft 475 kts 72°
2026-05-05 00:42 -14.35168 -44.43170 39001 ft 458 kts 72°
2026-05-05 00:43 -14.34207 -44.40114 38999 ft 445 kts 72°
2026-05-05 00:43 -14.32314 -44.34106 38997 ft 451 kts 72°
2026-05-05 00:44 -14.30367 -44.27933 38999 ft 454 kts 72°
2026-05-05 00:44 -14.28432 -44.21802 39003 ft 453 kts 72°
2026-05-05 00:45 -14.26481 -44.15626 39003 ft 453 kts 72°
2026-05-05 00:45 -14.24529 -44.09453 38998 ft 453 kts 72°
2026-05-05 00:46 -14.22582 -44.03297 38997 ft 454 kts 72°
2026-05-05 00:46 -14.20599 -43.97031 39004 ft 454 kts 72°
2026-05-05 00:47 -14.18652 -43.90888 39007 ft 454 kts 72°
2026-05-05 00:47 -14.16755 -43.84907 39013 ft 454 kts 72°
2026-05-05 00:48 -14.14786 -43.78703 39007 ft 455 kts 72°
2026-05-05 00:48 -14.12825 -43.72534 39004 ft 455 kts 72°
2026-05-05 00:49 -14.10837 -43.66283 39012 ft 454 kts 72°
2026-05-05 00:49 -14.08882 -43.60143 39010 ft 454 kts 72°
2026-05-05 00:50 -14.06904 -43.53937 39009 ft 454 kts 72°
2026-05-05 00:50 -14.05679 -43.50093 39004 ft 454 kts 72°
2026-05-05 00:51 -14.03707 -43.43914 39001 ft 454 kts 72°
2026-05-05 00:51 -14.01747 -43.37777 39005 ft 454 kts 72°
2026-05-05 00:52 -13.99789 -43.31650 39003 ft 453 kts 71°
2026-05-05 00:52 -13.97933 -43.25855 38993 ft 453 kts 71°
2026-05-05 00:53 -13.95974 -43.19746 38998 ft 453 kts 71°
2026-05-05 00:53 -13.93969 -43.13499 39006 ft 452 kts 71°
2026-05-05 00:54 -13.92067 -43.07576 39000 ft 452 kts 71°
2026-05-05 00:54 -13.90098 -43.01452 38992 ft 453 kts 71°
2026-05-05 00:55 -13.88121 -42.95309 38989 ft 453 kts 71°
2026-05-05 00:55 -13.86480 -42.90216 38984 ft 453 kts 71°
2026-05-05 00:56 -13.84493 -42.84051 38982 ft 453 kts 71°
2026-05-05 00:56 -13.82502 -42.77883 38989 ft 452 kts 71°
2026-05-05 00:57 -13.80520 -42.71745 39001 ft 452 kts 71°
2026-05-05 00:57 -13.78529 -42.65588 39005 ft 455 kts 71°
2026-05-05 00:58 -13.76515 -42.59364 39001 ft 456 kts 71°
2026-05-05 00:58 -13.74587 -42.53412 39006 ft 456 kts 71°
2026-05-05 00:59 -13.74316 -42.52577 38982 ft 456 kts 71°
2026-05-05 01:01 -13.73747 -42.50818 39031 ft 456 kts 71°
2026-05-05 01:02 -13.72508 -42.47000 38995 ft 456 kts 71°
2026-05-05 01:02 -13.70698 -42.41419 38996 ft 456 kts 71°
2026-05-05 01:03 -13.68730 -42.35363 38991 ft 457 kts 71°
2026-05-05 01:03 -13.66720 -42.29177 39001 ft 457 kts 71°
2026-05-05 01:04 -13.64706 -42.22988 39005 ft 457 kts 71°
2026-05-05 01:04 -13.61816 -42.14118 39003 ft 453 kts 71°
2026-05-05 01:05 -13.59804 -42.07957 38998 ft 457 kts 71°
2026-05-05 01:05 -13.57789 -42.01793 39001 ft 457 kts 71°
2026-05-05 01:06 -13.55780 -41.95650 39011 ft 459 kts 71°
2026-05-05 01:06 -13.53747 -41.89438 39001 ft 461 kts 71°
2026-05-05 01:07 -13.51710 -41.83215 39002 ft 457 kts 71°
2026-05-05 01:07 -13.49768 -41.77287 39003 ft 456 kts 71°
2026-05-05 01:08 -13.47758 -41.71161 39003 ft 455 kts 71°
2026-05-05 01:08 -13.45724 -41.64965 39000 ft 458 kts 71°
2026-05-05 01:09 -13.43702 -41.58810 38997 ft 453 kts 71°
2026-05-05 01:09 -13.41656 -41.52590 39000 ft 458 kts 71°
2026-05-05 01:10 -13.39611 -41.46378 39000 ft 458 kts 71°
2026-05-05 01:10 -13.37596 -41.40263 38997 ft 458 kts 71°
2026-05-05 01:11 -13.35581 -41.34154 39010 ft 459 kts 71°
2026-05-05 01:11 -13.33557 -41.28021 38996 ft 458 kts 71°
2026-05-05 01:12 -13.31576 -41.22025 39003 ft 456 kts 71°
2026-05-05 01:12 -13.29888 -41.16920 38994 ft 455 kts 71°
2026-05-05 01:13 -13.27852 -41.10766 38999 ft 454 kts 71°
2026-05-05 01:13 -13.25807 -41.04592 38993 ft 453 kts 71°
2026-05-05 01:14 -13.23767 -40.98441 38996 ft 454 kts 71°
2026-05-05 01:14 -13.21711 -40.92244 39001 ft 456 kts 71°
2026-05-05 01:15 -13.19677 -40.86119 39003 ft 453 kts 71°
2026-05-05 01:15 -13.17677 -40.80103 38999 ft 453 kts 71°
2026-05-05 01:16 -13.15642 -40.73978 39003 ft 453 kts 71°
2026-05-05 01:16 -13.13614 -40.67868 39005 ft 452 kts 71°
2026-05-05 01:17 -13.11616 -40.61851 39003 ft 452 kts 71°
2026-05-05 01:17 -13.09576 -40.55738 38907 ft 453 kts 71°
2026-05-05 01:18 -13.08552 -40.52670 38663 ft 452 kts 71°
2026-05-05 01:18 -13.07541 -40.49642 38426 ft 451 kts 71°
2026-05-05 01:18 -13.06548 -40.46670 38171 ft 451 kts 71°
2026-05-05 01:18 -13.05515 -40.43579 37916 ft 451 kts 71°
2026-05-05 01:19 -13.04494 -40.40526 37667 ft 451 kts 71°
2026-05-05 01:19 -13.03478 -40.37487 37419 ft 452 kts 71°
2026-05-05 01:19 -13.02454 -40.34428 37160 ft 454 kts 71°
2026-05-05 01:19 -13.01439 -40.31397 36923 ft 455 kts 71°
2026-05-05 01:20 -13.00422 -40.28364 36686 ft 454 kts 71°
2026-05-05 01:20 -12.99428 -40.25401 36435 ft 453 kts 71°
2026-05-05 01:20 -12.98456 -40.22505 36120 ft 454 kts 71°
2026-05-05 01:20 -12.97426 -40.19437 35502 ft 456 kts 71°
2026-05-05 01:21 -12.96388 -40.16346 34656 ft 460 kts 71°
2026-05-05 01:21 -12.95353 -40.13266 33704 ft 466 kts 71°
2026-05-05 01:21 -12.94316 -40.10181 32981 ft 464 kts 71°
2026-05-05 01:21 -12.93274 -40.07080 32179 ft 465 kts 71°
2026-05-05 01:22 -12.92208 -40.03912 31277 ft 466 kts 71°
2026-05-05 01:22 -12.91134 -40.00720 30643 ft 461 kts 71°
2026-05-05 01:22 -12.90110 -39.97680 30172 ft 454 kts 71°
2026-05-05 01:22 -12.89089 -39.94649 29541 ft 450 kts 71°
2026-05-05 01:23 -12.88054 -39.91578 28980 ft 444 kts 71°
2026-05-05 01:23 -12.87064 -39.88642 28334 ft 441 kts 71°
2026-05-05 01:23 -12.86239 -39.85638 27797 ft 435 kts 78°
2026-05-05 01:23 -12.85786 -39.82555 27079 ft 434 kts 85°
2026-05-05 01:24 -12.85697 -39.79565 26637 ft 428 kts 91°
2026-05-05 01:24 -12.85755 -39.76615 26020 ft 426 kts 91°
2026-05-05 01:24 -12.85793 -39.73607 25493 ft 420 kts 90°
2026-05-05 01:24 -12.85823 -39.70618 24829 ft 418 kts 90°
2026-05-05 01:25 -12.85851 -39.67625 24300 ft 412 kts 90°
2026-05-05 01:25 -12.85878 -39.64742 23743 ft 409 kts 90°
2026-05-05 01:25 -12.85907 -39.61803 23158 ft 405 kts 90°
2026-05-05 01:25 -12.85933 -39.58960 22600 ft 401 kts 90°
2026-05-05 01:26 -12.85960 -39.56074 22013 ft 397 kts 90°
2026-05-05 01:26 -12.85986 -39.53300 21452 ft 394 kts 90°
2026-05-05 01:26 -12.86012 -39.50509 20892 ft 390 kts 90°
2026-05-05 01:26 -12.86039 -39.47704 20310 ft 387 kts 90°
2026-05-05 01:27 -12.86065 -39.44987 19753 ft 384 kts 90°
2026-05-05 01:27 -12.86090 -39.42257 19198 ft 381 kts 90°
2026-05-05 01:27 -12.86115 -39.39569 18636 ft 377 kts 90°
2026-05-05 01:27 -12.86140 -39.36894 18089 ft 374 kts 90°
2026-05-05 01:28 -12.86164 -39.34242 17521 ft 372 kts 90°
2026-05-05 01:28 -12.86187 -39.31627 16879 ft 371 kts 90°
2026-05-05 01:28 -12.86211 -39.28994 16412 ft 366 kts 90°
2026-05-05 01:28 -12.86233 -39.26404 15863 ft 363 kts 90°
2026-05-05 01:29 -12.86256 -39.23815 15287 ft 361 kts 90°
2026-05-05 01:29 -12.86278 -39.21252 14757 ft 358 kts 90°
2026-05-05 01:29 -12.86299 -39.18719 14215 ft 355 kts 90°
2026-05-05 01:29 -12.86320 -39.16232 13679 ft 353 kts 90°
2026-05-05 01:30 -12.86341 -39.13724 13137 ft 350 kts 90°
2026-05-05 01:30 -12.86360 -39.11445 12645 ft 348 kts 90°
2026-05-05 01:30 -12.86380 -39.08955 12110 ft 345 kts 90°
2026-05-05 01:30 -12.86399 -39.06526 11580 ft 343 kts 90°
2026-05-05 01:31 -12.86419 -39.04092 11062 ft 340 kts 90°
2026-05-05 01:31 -12.86439 -39.01667 10536 ft 338 kts 90°
2026-05-05 01:31 -12.86458 -38.99278 10234 ft 328 kts 90°
2026-05-05 01:31 -12.86476 -38.96965 10103 ft 314 kts 90°
2026-05-05 01:32 -12.86492 -38.94802 9985 ft 300 kts 90°
2026-05-05 01:32 -12.86508 -38.92694 9687 ft 294 kts 90°
2026-05-05 01:32 -12.86524 -38.90616 9394 ft 288 kts 91°
2026-05-05 01:32 -12.86741 -38.88560 9027 ft 285 kts 102°
2026-05-05 01:33 -12.87319 -38.86628 8611 ft 284 kts 111°
2026-05-05 01:33 -12.88010 -38.84727 8222 ft 282 kts 110°
2026-05-05 01:33 -12.88655 -38.82895 7829 ft 281 kts 110°
2026-05-05 01:33 -12.89318 -38.80989 7448 ft 279 kts 110°
2026-05-05 01:34 -12.89960 -38.79138 7053 ft 277 kts 110°
2026-05-05 01:34 -12.90607 -38.77276 6669 ft 276 kts 110°
2026-05-05 01:34 -12.91254 -38.75415 6276 ft 275 kts 110°
2026-05-05 01:34 -12.91897 -38.73567 5775 ft 278 kts 110°
2026-05-05 01:35 -12.92535 -38.71736 5405 ft 275 kts 110°
2026-05-05 01:35 -12.93192 -38.69846 5019 ft 274 kts 110°
2026-05-05 01:35 -12.93827 -38.68023 4602 ft 273 kts 110°
2026-05-05 01:35 -12.94259 -38.66780 4337 ft 273 kts 110°
2026-05-05 01:36 -12.94901 -38.64935 4005 ft 269 kts 110°
2026-05-05 01:36 -12.95518 -38.63158 3784 ft 263 kts 110°
2026-05-05 01:36 -12.96090 -38.61490 3558 ft 256 kts 107°
2026-05-05 01:36 -12.96322 -38.59691 3367 ft 248 kts 86°
2026-05-05 01:37 -12.96028 -38.58011 3268 ft 234 kts 76°
2026-05-05 01:37 -12.95679 -38.56442 3054 ft 215 kts 78°
2026-05-05 01:37 -12.95376 -38.54945 2688 ft 209 kts 78°
2026-05-05 01:37 -12.95095 -38.53511 2552 ft 214 kts 78°
2026-05-05 01:38 -12.94810 -38.52052 2482 ft 188 kts 78°
2026-05-05 01:38 -12.94567 -38.50816 2392 ft 163 kts 78°
2026-05-05 01:38 -12.94367 -38.49803 2350 ft 138 kts 78°
2026-05-05 01:38 -12.94177 -38.48840 2086 ft 133 kts 78°
2026-05-05 01:39 -12.93996 -38.47924 2000 ft 137 kts 78°
2026-05-05 01:39 -12.93803 -38.46963 1784 ft 135 kts 78°
2026-05-05 01:39 -12.93619 -38.46037 1584 ft 133 kts 78°
2026-05-05 01:39 -12.93431 -38.45096 1576 ft 136 kts 78°
2026-05-05 01:40 -12.93243 -38.44160 1582 ft 135 kts 78°
2026-05-05 01:40 -12.93058 -38.43235 1585 ft 134 kts 78°
2026-05-05 01:40 -12.92870 -38.42298 1587 ft 133 kts 78°
2026-05-05 01:40 -12.92682 -38.41362 1558 ft 135 kts 78°
2026-05-05 01:41 -12.92493 -38.40417 1383 ft 133 kts 78°
2026-05-05 01:41 -12.92307 -38.39488 1211 ft 133 kts 78°
2026-05-05 01:41 -12.92134 -38.38627 1047 ft 132 kts 78°
2026-05-05 01:41 -12.91953 -38.37726 872 ft 132 kts 78°
2026-05-05 01:42 -12.91774 -38.36832 695 ft 131 kts 78°
2026-05-05 01:42 -12.91619 -38.36058 565 ft 131 kts 78°
2026-05-05 01:42 -12.91473 -38.35328 409 ft 131 kts 78°
2026-05-05 01:42 -12.91301 -38.34469 259 ft 130 kts 78°
2026-05-05 01:43 -12.91135 -38.33643 105 ft 129 kts 78°
2026-05-05 01:43 -12.91012 -38.33026 43 ft 113 kts 78°
2026-05-05 01:43 -12.90918 -38.32557 53 ft 24 kts 78°
2026-05-05 01:43 -12.90914 -38.32539 52 ft 0 kts 78°
2026-05-05 01:45 -12.90914 -38.32538 51 ft 4 kts 78°
2026-05-05 01:45 -12.90883 -38.32386 53 ft 30 kts 78°
2026-05-05 01:45 -12.90897 -38.32190 57 ft 22 kts 148°
2026-05-05 01:46 -12.90929 -38.32181 57 ft 0 kts 194°
2026-05-05 01:47 -12.90930 -38.32181 57 ft 0 kts 194°
2026-05-05 01:48 -12.90940 -38.32188 57 ft 4 kts 217°
2026-05-05 01:48 -12.90978 -38.32239 56 ft 15 kts 238°
2026-05-05 01:48 -12.91030 -38.32366 49 ft 24 kts 253°
2026-05-05 01:48 -12.91073 -38.32564 47 ft 32 kts 260°
2026-05-05 01:49 -12.91112 -38.32803 49 ft 36 kts 260°
2026-05-05 01:49 -12.91163 -38.33009 46 ft 3 kts 255°
2026-05-05 01:50 -12.91170 -38.33034 45 ft 9 kts 255°
2026-05-05 01:50 -12.91195 -38.33127 43 ft 19 kts 249°
2026-05-05 01:50 -12.91272 -38.33164 44 ft 8 kts 223°
2026-05-05 01:50 -12.91328 -38.33206 42 ft 12 kts 214°
2026-05-05 01:51 -12.91362 -38.33231 43 ft 0 kts 216°
2026-05-05 01:57 -12.91361 -38.33231 43 ft 0 kts 216°
2026-05-05 01:57 -12.91360 -38.33230 42 ft 0 kts 216°
2026-05-05 01:57 -12.91359 -38.33229 42 ft 0 kts 216°